Location: Newark
(48.4472°N, 1.4892°E)
Time: 23:09:38
(UTC+00:00)

Transit 2A Rocket - All Passes

Search period start: 20 November 2019 00:00
Search period end: 30 November 2019 00:00
Orbit: 594 x 909 km, 66.7° (Epoch: 20 November)

Date Brightness Start Highest point End Pass type
(mag) Time Alt. Az. Time Alt. Az. Time Alt. Az.
20 Nov - 00:23:51 10° NNW 00:24:38 10° NNW 00:25:25 10° NNW night (unlit)
20 Nov - 03:51:26 10° N 03:54:03 15° NNE 03:56:40 10° ENE visible
20 Nov - 05:33:01 10° NNW 05:37:21 71° NE 05:41:52 10° SE visible
20 Nov - 07:16:45 10° WNW 07:19:23 16° WSW 07:22:06 10° SW daylight
20 Nov - 20:12:27 10° SSE 20:15:57 21° ESE 20:19:18 10° ENE night (unlit)
20 Nov - 21:53:33 10° SW 21:58:09 57° NW 22:02:30 10° NNE night (unlit)
20 Nov - 23:39:17 10° WNW 23:41:37 14° NNW 23:43:54 10° N night (unlit)
21 Nov - 03:09:36 10° N 03:11:03 11° NNE 03:12:31 10° NE visible
21 Nov - 04:50:36 10° NNW 04:54:44 42° NE 04:59:01 10° ESE visible
21 Nov - 06:33:24 10° NW 06:37:06 27° WSW 06:40:56 10° S visible
21 Nov - 19:32:00 10° SE 19:33:42 12° ESE 19:35:23 10° E night (unlit)
21 Nov - 21:10:53 10° SSW 21:15:36 86° ESE 21:20:01 10° NE night (unlit)
21 Nov - 22:55:26 10° W 22:58:41 19° NW 23:01:50 10° N night (unlit)
22 Nov - 04:08:17 10° NNW 04:12:02 27° NE 04:15:52 10° ESE visible
22 Nov - 05:50:32 10° NW 05:54:44 47° WSW 05:59:06 10° SSE visible
22 Nov - 20:28:35 10° SSW 20:33:07 50° ESE 20:37:25 10° NE night (unlit)
22 Nov - 22:11:57 10° W 22:15:51 27° NW 22:19:38 10° NNE night (unlit)
23 Nov - 03:26:04 10° N 03:29:12 19° NE 03:32:24 10° E visible
23 Nov - 05:07:54 10° NW 05:12:16 82° WSW 05:16:50 10° SSE visible
23 Nov - 06:53:04 10° W 06:54:06 11° WSW 06:55:08 10° WSW daylight
23 Nov - 19:46:41 10° S 19:50:44 29° ESE 19:54:35 10° NE night (unlit)
23 Nov - 21:28:46 10° WSW 21:33:08 41° NW 21:37:19 10° NNE night (unlit)
23 Nov - 23:15:24 10° NW 23:16:51 11° NNW 23:18:16 10° N night (unlit)
24 Nov - 02:44:00 10° N 02:46:17 14° NNE 02:48:35 10° ENE visible
24 Nov - 04:25:25 10° NNW 04:29:43 59° NE 04:34:12 10° SE visible
24 Nov - 06:08:44 10° WNW 06:11:52 19° WSW 06:15:07 10° SSW visible
24 Nov - 19:05:24 10° SSE 19:08:26 17° ESE 19:11:21 10° ENE night (unlit)
24 Nov - 20:45:53 10° SW 20:50:31 68° NW 20:54:55 10° NNE night (unlit)
24 Nov - 22:31:13 10° WNW 22:33:51 15° NNW 22:36:27 10° N night (unlit)
25 Nov - 02:02:28 10° NNE 02:03:16 10° NNE 02:04:03 10° NNE night (unlit)
25 Nov - 03:43:02 10° NNW 03:47:04 36° NE 03:51:15 10° ESE visible
25 Nov - 05:25:38 10° NW 05:29:33 33° WSW 05:33:40 10° S visible
25 Nov - 20:03:21 10° SSW 20:08:00 72° ESE 20:12:23 10° NE night (unlit)
25 Nov - 21:47:30 10° W 21:50:58 21° NW 21:54:20 10° NNE night (unlit)
26 Nov - 03:00:45 10° NNW 03:04:20 24° NE 03:07:59 10° E visible
26 Nov - 04:42:51 10° NW 04:47:09 57° WSW 04:51:39 10° SSE visible
26 Nov - 19:21:10 10° S 19:25:33 41° ESE 19:29:43 10° NE visible
26 Nov - 21:04:07 10° WSW 21:08:10 31° NW 21:12:05 10° NNE night (unlit)
27 Nov - 02:18:34 10° N 02:21:29 17° NE 02:24:25 10° ENE night (unlit)
27 Nov - 04:00:17 10° NW 04:04:39 83° NE 04:09:15 10° SE visible
27 Nov - 05:44:27 10° WNW 05:46:37 13° WSW 05:48:49 10° SW visible
27 Nov - 18:39:27 10° SSE 18:43:12 24° ESE 18:46:46 10° ENE visible
27 Nov - 20:21:02 10° SW 20:25:29 48° NW 20:29:45 10° NNE visible
27 Nov - 22:07:10 10° NW 22:09:03 12° NNW 22:10:56 10° N night (unlit)
28 Nov - 01:36:35 10° N 01:38:31 13° NNE 01:40:27 10° NE night (unlit)
28 Nov - 03:17:49 10° NNW 03:22:04 50° NE 03:26:30 10° SE visible
28 Nov - 05:00:51 10° WNW 05:04:21 23° WSW 05:08:00 10° SSW visible
28 Nov - 17:58:32 10° SE 18:00:56 14° ESE 18:03:15 10° ENE visible
28 Nov - 19:38:16 10° SW 19:42:54 81° NW 19:47:18 10° NNE visible
28 Nov - 21:23:11 10° WNW 21:26:06 17° NNW 21:28:59 10° N night (unlit)
29 Nov - 02:35:29 10° NNW 02:39:23 31° NE 02:43:27 10° ESE night (unlit)
29 Nov - 04:17:53 10° NW 04:21:59 40° WSW 04:26:19 10° S visible
29 Nov - 18:55:50 10° SSW 19:00:24 59° ESE 19:04:44 10° NE visible
29 Nov - 20:39:34 10° W 20:43:15 24° NW 20:46:48 10° NNE visible
